Time,TemperatureF,DewpointF,PressureIn,WindDirection,WindDirectionDegrees,WindSpeedMPH,WindSpeedGustMPH,Humidity,HourlyPrecipIn,Conditions,Clouds,dailyrainin,SolarRadiationWatts/m^2,SoftwareType,DateUTC
2013-01-18 00:02:00,38.0,35.0,-100.00,NNW,335,3.0,7.0,89,0.00,,,0.06,0.000000,,2013-01-18 06:02:00,
2013-01-18 00:33:00,38.0,35.0,-100.00,North,357,3.0,8.0,89,0.00,,,0.06,0.000000,,2013-01-18 06:33:00,
2013-01-18 00:43:00,38.0,35.0,-100.00,North,357,3.0,8.0,89,0.00,,,0.06,0.000000,,2013-01-18 06:43:00,
2013-01-18 00:53:00,38.0,35.0,-100.00,North,357,3.0,8.0,89,0.00,,,0.06,0.000000,,2013-01-18 06:53:00,
2013-01-18 01:02:00,38.0,35.0,-100.00,North,357,3.0,8.0,89,0.00,,,0.06,0.000000,,2013-01-18 07:02:00,
2013-01-18 01:33:00,37.0,35.0,-100.00,NNW,343,2.0,8.0,92,0.00,,,0.06,0.000000,,2013-01-18 07:33:00,
2013-01-18 01:42:00,37.0,35.0,-100.00,NNW,343,2.0,8.0,92,0.00,,,0.06,0.000000,,2013-01-18 07:42:00,
2013-01-18 01:52:00,37.0,35.0,-100.00,NNW,343,2.0,8.0,92,0.00,,,0.06,0.000000,,2013-01-18 07:52:00,
2013-01-18 02:02:00,37.0,35.0,-100.00,NNW,343,2.0,8.0,92,0.00,,,0.06,0.000000,,2013-01-18 08:02:00,
2013-01-18 02:33:00,36.0,34.0,-100.00,North,1,4.0,8.0,94,0.00,,,0.05,0.000000,,2013-01-18 08:33:00,
2013-01-18 02:43:00,36.0,34.0,-100.00,North,1,4.0,8.0,94,0.00,,,0.05,0.000000,,2013-01-18 08:43:00,
2013-01-18 02:53:00,36.0,34.0,-100.00,North,1,4.0,8.0,94,0.00,,,0.05,0.000000,,2013-01-18 08:53:00,
2013-01-18 03:02:00,36.0,34.0,-100.00,North,1,4.0,8.0,94,0.00,,,0.05,0.000000,,2013-01-18 09:02:00,
2013-01-18 03:33:00,35.0,34.0,-100.00,North,7,4.0,7.0,95,0.00,,,0.03,0.000000,,2013-01-18 09:33:00,
2013-01-18 03:43:00,35.0,34.0,-100.00,North,7,4.0,7.0,95,0.00,,,0.03,0.000000,,2013-01-18 09:43:00,
2013-01-18 03:53:00,35.0,34.0,-100.00,North,7,4.0,7.0,95,0.00,,,0.03,0.000000,,2013-01-18 09:53:00,
2013-01-18 04:02:00,35.0,34.0,-100.00,North,7,4.0,7.0,95,0.00,,,0.03,0.000000,,2013-01-18 10:02:00,
2013-01-18 04:33:00,35.0,34.0,-100.00,North,8,4.0,7.0,96,0.00,,,0.02,0.000000,,2013-01-18 10:33:00,
2013-01-18 04:43:00,35.0,34.0,-100.00,North,8,4.0,7.0,96,0.00,,,0.02,0.000000,,2013-01-18 10:43:00,
2013-01-18 04:53:00,35.0,34.0,-100.00,North,8,4.0,7.0,96,0.00,,,0.02,0.000000,,2013-01-18 10:53:00,
2013-01-18 05:02:00,35.0,34.0,-100.00,North,8,4.0,7.0,96,0.00,,,0.02,0.000000,,2013-01-18 11:02:00,
2013-01-18 05:33:00,33.0,32.0,-100.00,North,9,3.0,7.0,97,0.00,,,0.01,0.000000,,2013-01-18 11:33:00,
2013-01-18 05:43:00,33.0,32.0,-100.00,North,9,3.0,7.0,97,0.00,,,0.01,0.000000,,2013-01-18 11:43:00,
2013-01-18 05:53:00,33.0,32.0,-100.00,North,9,3.0,7.0,97,0.00,,,0.01,0.000000,,2013-01-18 11:53:00,
2013-01-18 06:03:00,33.0,32.0,-100.00,North,9,3.0,7.0,97,0.00,,,0.01,0.000000,,2013-01-18 12:03:00,
2013-01-18 06:33:00,33.0,32.0,-100.00,North,10,3.0,7.0,98,0.00,,,0.01,0.000000,,2013-01-18 12:33:00,
2013-01-18 06:43:00,33.0,32.0,-100.00,North,10,3.0,7.0,98,0.00,,,0.01,0.000000,,2013-01-18 12:43:00,
2013-01-18 06:53:00,33.0,32.0,-100.00,North,10,3.0,7.0,98,0.00,,,0.01,0.000000,,2013-01-18 12:53:00,
2013-01-18 07:03:00,33.0,32.0,-100.00,North,10,3.0,7.0,98,0.00,,,0.01,0.000000,,2013-01-18 13:03:00,
2013-01-18 07:33:00,33.0,32.0,-100.00,NNE,27,5.0,9.0,98,0.00,,,0.01,1.000000,,2013-01-18 13:33:00,
2013-01-18 07:43:00,33.0,32.0,-100.00,NNE,27,5.0,9.0,98,0.00,,,0.01,1.000000,,2013-01-18 13:43:00,
2013-01-18 07:53:00,33.0,32.0,-100.00,NNE,27,5.0,9.0,98,0.00,,,0.01,1.000000,,2013-01-18 13:53:00,
2013-01-18 08:03:00,33.0,32.0,-100.00,NNE,27,5.0,9.0,98,0.00,,,0.01,1.000000,,2013-01-18 14:03:00,
2013-01-18 08:34:00,35.0,34.0,-100.00,NNE,31,5.0,10.0,96,0.00,,,0.00,29.000000,,2013-01-18 14:34:00,
2013-01-18 08:43:00,35.0,34.0,-100.00,NNE,31,5.0,10.0,96,0.00,,,0.00,29.000000,,2013-01-18 14:43:00,
2013-01-18 08:53:00,35.0,34.0,-100.00,NNE,31,5.0,10.0,96,0.00,,,0.00,29.000000,,2013-01-18 14:53:00,
2013-01-18 09:03:00,35.0,34.0,-100.00,NNE,31,5.0,10.0,96,0.00,,,0.00,29.000000,,2013-01-18 15:03:00,
2013-01-18 09:34:00,40.0,36.0,-100.00,ENE,58,6.0,11.0,84,0.00,,,0.00,188.000000,,2013-01-18 15:34:00,
2013-01-18 09:43:00,40.0,36.0,-100.00,ENE,58,6.0,11.0,84,0.00,,,0.00,188.000000,,2013-01-18 15:43:00,
2013-01-18 09:54:00,40.0,36.0,-100.00,ENE,58,6.0,11.0,84,0.00,,,0.00,188.000000,,2013-01-18 15:54:00,
2013-01-18 10:03:00,40.0,36.0,-100.00,ENE,58,6.0,11.0,84,0.00,,,0.00,188.000000,,2013-01-18 16:03:00,
2013-01-18 10:33:00,46.0,36.0,-100.00,NE,50,6.0,11.0,67,0.00,,,0.00,385.000000,,2013-01-18 16:33:00,
2013-01-18 10:43:00,46.0,36.0,-100.00,NE,50,6.0,11.0,67,0.00,,,0.00,385.000000,,2013-01-18 16:43:00,
2013-01-18 10:53:00,46.0,36.0,-100.00,NE,50,6.0,11.0,67,0.00,,,0.00,385.000000,,2013-01-18 16:53:00,
2013-01-18 11:03:00,46.0,36.0,-100.00,NE,50,6.0,11.0,67,0.00,,,0.00,385.000000,,2013-01-18 17:03:00,
2013-01-18 11:34:00,51.0,31.0,-100.00,NE,52,6.0,13.0,46,0.00,,,0.00,507.000000,,2013-01-18 17:34:00,
2013-01-18 11:43:00,51.0,31.0,-100.00,NE,52,6.0,13.0,46,0.00,,,0.00,507.000000,,2013-01-18 17:43:00,
2013-01-18 11:53:00,51.0,31.0,-100.00,NE,52,6.0,13.0,46,0.00,,,0.00,507.000000,,2013-01-18 17:53:00,
2013-01-18 12:03:00,51.0,31.0,-100.00,NE,52,6.0,13.0,46,0.00,,,0.00,507.000000,,2013-01-18 18:03:00,
2013-01-18 12:34:00,54.0,28.0,-100.00,East,83,7.0,14.0,37,0.00,,,0.00,576.000000,,2013-01-18 18:34:00,
2013-01-18 12:43:00,54.0,28.0,-100.00,East,83,7.0,14.0,37,0.00,,,0.00,576.000000,,2013-01-18 18:43:00,
2013-01-18 12:53:00,54.0,28.0,-100.00,East,83,7.0,14.0,37,0.00,,,0.00,576.000000,,2013-01-18 18:53:00,
2013-01-18 13:03:00,54.0,28.0,-100.00,East,83,7.0,14.0,37,0.00,,,0.00,576.000000,,2013-01-18 19:03:00,
2013-01-18 13:33:00,55.0,27.0,-100.00,ENE,72,5.0,12.0,34,0.00,,,0.00,585.000000,,2013-01-18 19:33:00,
2013-01-18 13:43:00,55.0,27.0,-100.00,ENE,72,5.0,12.0,34,0.00,,,0.00,585.000000,,2013-01-18 19:43:00,
2013-01-18 13:53:00,55.0,27.0,-100.00,ENE,72,5.0,12.0,34,0.00,,,0.00,585.000000,,2013-01-18 19:53:00,
2013-01-18 14:03:00,55.0,27.0,-100.00,ENE,72,5.0,12.0,34,0.00,,,0.00,585.000000,,2013-01-18 20:03:00,
2013-01-18 14:33:00,58.0,28.0,-100.00,ENE,66,5.0,11.0,31,0.00,,,0.00,533.000000,,2013-01-18 20:33:00,
2013-01-18 14:43:00,58.0,28.0,-100.00,ENE,66,5.0,11.0,31,0.00,,,0.00,533.000000,,2013-01-18 20:43:00,
2013-01-18 14:53:00,58.0,28.0,-100.00,ENE,66,5.0,11.0,31,0.00,,,0.00,533.000000,,2013-01-18 20:53:00,
2013-01-18 15:03:00,58.0,28.0,-100.00,ENE,66,5.0,11.0,31,0.00,,,0.00,533.000000,,2013-01-18 21:03:00,
2013-01-18 15:33:00,59.0,29.0,-100.00,East,91,4.0,11.0,32,0.00,,,0.00,426.000000,,2013-01-18 21:33:00,
2013-01-18 15:43:00,59.0,29.0,-100.00,East,91,4.0,11.0,32,0.00,,,0.00,426.000000,,2013-01-18 21:43:00,
2013-01-18 15:53:00,59.0,29.0,-100.00,East,91,4.0,11.0,32,0.00,,,0.00,426.000000,,2013-01-18 21:53:00,
2013-01-18 16:03:00,59.0,29.0,-100.00,East,91,4.0,11.0,32,0.00,,,0.00,426.000000,,2013-01-18 22:03:00,
2013-01-18 16:33:00,57.0,27.0,-100.00,ENE,78,4.0,7.0,32,0.00,,,0.00,258.000000,,2013-01-18 22:33:00,
2013-01-18 16:43:00,57.0,27.0,-100.00,ENE,78,4.0,7.0,32,0.00,,,0.00,258.000000,,2013-01-18 22:43:00,
2013-01-18 16:53:00,57.0,27.0,-100.00,ENE,78,4.0,7.0,32,0.00,,,0.00,258.000000,,2013-01-18 22:53:00,
2013-01-18 17:03:00,57.0,27.0,-100.00,ENE,78,4.0,7.0,32,0.00,,,0.00,258.000000,,2013-01-18 23:03:00,
2013-01-18 17:33:00,51.0,32.0,-100.00,SSE,156,0.0,6.0,48,0.00,,,0.00,18.000000,,2013-01-18 23:33:00,
2013-01-18 17:43:00,51.0,32.0,-100.00,SSE,156,0.0,6.0,48,0.00,,,0.00,18.000000,,2013-01-18 23:43:00,
2013-01-18 17:53:00,51.0,32.0,-100.00,SSE,156,0.0,6.0,48,0.00,,,0.00,18.000000,,2013-01-18 23:53:00,
2013-01-18 18:02:00,51.0,32.0,-100.00,SSE,156,0.0,6.0,48,0.00,,,0.00,18.000000,,2013-01-19 00:02:00,
2013-01-18 18:33:00,44.0,34.0,-100.00,South,191,0.0,2.0,69,0.00,,,0.00,3.000000,,2013-01-19 00:33:00,
2013-01-18 18:43:00,44.0,34.0,-100.00,South,191,0.0,2.0,69,0.00,,,0.00,3.000000,,2013-01-19 00:43:00,
2013-01-18 18:53:00,44.0,34.0,-100.00,South,191,0.0,2.0,69,0.00,,,0.00,3.000000,,2013-01-19 00:53:00,
2013-01-18 19:02:00,44.0,34.0,-100.00,South,191,0.0,2.0,69,0.00,,,0.00,3.000000,,2013-01-19 01:02:00,
2013-01-18 19:33:00,42.0,34.0,-100.00,South,186,0.0,1.0,74,0.00,,,0.00,0.000000,,2013-01-19 01:33:00,
2013-01-18 19:43:00,42.0,34.0,-100.00,South,186,0.0,1.0,74,0.00,,,0.00,0.000000,,2013-01-19 01:43:00,
2013-01-18 19:53:00,42.0,34.0,-100.00,South,186,0.0,1.0,74,0.00,,,0.00,0.000000,,2013-01-19 01:53:00,
2013-01-18 20:02:00,42.0,34.0,-100.00,South,186,0.0,1.0,74,0.00,,,0.00,0.000000,,2013-01-19 02:02:00,
2013-01-18 20:33:00,42.0,34.0,-100.00,WSW,241,0.0,2.0,73,0.00,,,0.00,0.000000,,2013-01-19 02:33:00,
2013-01-18 20:43:00,42.0,34.0,-100.00,WSW,241,0.0,2.0,73,0.00,,,0.00,0.000000,,2013-01-19 02:43:00,
2013-01-18 20:53:00,42.0,34.0,-100.00,WSW,241,0.0,2.0,73,0.00,,,0.00,0.000000,,2013-01-19 02:53:00,
2013-01-18 21:03:00,42.0,34.0,-100.00,WSW,241,0.0,2.0,73,0.00,,,0.00,0.000000,,2013-01-19 03:03:00,
2013-01-18 21:33:00,37.0,35.0,-100.00,SSW,213,0.0,1.0,93,0.00,,,-99.99,0.000000,,2013-01-19 03:33:00,
2013-01-18 21:44:00,37.0,35.0,-100.00,SSW,213,0.0,1.0,93,0.00,,,-99.99,0.000000,,2013-01-19 03:44:00,
2013-01-18 21:53:00,37.0,35.0,-100.00,SSW,213,0.0,1.0,93,0.00,,,-99.99,0.000000,,2013-01-19 03:53:00,
2013-01-18 22:02:00,37.0,35.0,-100.00,SSW,213,0.0,1.0,93,0.00,,,-99.99,0.000000,,2013-01-19 04:02:00,
2013-01-18 22:33:00,39.0,34.0,-100.00,NNE,26,0.0,0.0,82,0.00,,,0.00,0.000000,,2013-01-19 04:33:00,
2013-01-18 22:43:00,39.0,34.0,-100.00,NNE,26,0.0,0.0,82,0.00,,,0.00,0.000000,,2013-01-19 04:43:00,
2013-01-18 22:53:00,39.0,34.0,-100.00,NNE,26,0.0,0.0,82,0.00,,,0.00,0.000000,,2013-01-19 04:53:00,
2013-01-18 23:03:00,39.0,34.0,-100.00,NNE,26,0.0,0.0,82,0.00,,,0.00,0.000000,,2013-01-19 05:03:00,
2013-01-18 23:33:00,35.0,33.0,-100.00,SW,225,1.0,3.0,92,0.00,,,0.00,0.000000,,2013-01-19 05:33:00,
2013-01-18 23:43:00,35.0,33.0,-100.00,SW,225,1.0,3.0,92,0.00,,,0.00,0.000000,,2013-01-19 05:43:00,
2013-01-18 23:53:00,35.0,33.0,-100.00,SW,225,1.0,3.0,92,0.00,,,0.00,0.000000,,2013-01-19 05:53:00,